TDRS 10

Last updated on Thu Jul 03 2025 00:02:38 GMT+0000 (Coordinated Universal Time)

1 27566U 02055A 25183.53361917 -.00000288 00000+0 00000+0 0 9999 2 27566 9.4075 45.8155 0002712 161.7422 216.1911 1.00272044 82737
UTC large
Height (km)
Speed (km/s)
/
Latitude / Longitude
Inclination (degrees)
Orbital Period (minutes)
Azimuth
Elevation
Range (km)
Doppler Factor

Next 0 passes for location: London (51.5072 / 0.1276)

Sorry there are no passes over London.